TimeMST,TemperatureF,Dew PointF,Humidity,Sea Level PressureIn,VisibilityMPH,Wind Direction,Wind SpeedMPH,Gust SpeedMPH,PrecipitationIn,Events,Conditions,WindDirDegrees,DateUTC
12:48 AM,19.9,17.1,89,29.95,-9999.0,NNE,11.5,-,0.02,,Unknown,20,2012-11-10 07:48:00
1:48 AM,19.9,17.1,89,29.96,-9999.0,NNE,9.2,-,0.01,,Unknown,20,2012-11-10 08:48:00
2:48 AM,19.9,17.1,89,29.97,-9999.0,North,10.4,-,0.01,,Unknown,350,2012-11-10 09:48:00
3:48 AM,19.0,15.1,85,29.96,-9999.0,NNW,11.5,-,N/A,,Unknown,340,2012-11-10 10:48:00
4:48 AM,18.0,14.0,84,29.99,-9999.0,NNW,10.4,-,N/A,,Unknown,340,2012-11-10 11:48:00
5:48 AM,17.1,12.9,84,30.01,-9999.0,NW,9.2,-,N/A,,Unknown,320,2012-11-10 12:48:00
6:48 AM,17.1,12.9,84,30.02,-9999.0,NNW,10.4,-,N/A,,Unknown,330,2012-11-10 13:48:00
7:48 AM,17.1,12.9,84,30.03,-9999.0,NW,9.2,-,N/A,,Unknown,320,2012-11-10 14:48:00
8:48 AM,17.1,12.0,81,30.03,-9999.0,NW,12.7,-,N/A,,Unknown,320,2012-11-10 15:48:00
9:48 AM,17.1,12.0,81,30.04,-9999.0,NW,10.4,-,N/A,,Unknown,320,2012-11-10 16:48:00
10:48 AM,16.0,10.9,81,30.06,-9999.0,NW,17.3,-,N/A,,Unknown,310,2012-11-10 17:48:00
11:48 AM,15.1,10.0,80,30.07,-9999.0,WNW,18.4,-,0.01,,Unknown,300,2012-11-10 18:48:00
12:48 PM,15.1,10.0,80,30.07,-9999.0,WNW,16.1,-,N/A,,Unknown,300,2012-11-10 19:48:00
1:48 PM,14.0,9.0,80,30.06,-9999.0,NW,18.4,-,N/A,,Unknown,310,2012-11-10 20:48:00
2:48 PM,12.9,8.1,81,30.09,-9999.0,NW,16.1,-,N/A,,Unknown,310,2012-11-10 21:48:00
3:48 PM,12.9,7.0,77,30.12,-9999.0,NW,15.0,-,N/A,,Unknown,310,2012-11-10 22:48:00
4:48 PM,12.0,6.1,77,30.14,-9999.0,NW,16.1,-,N/A,,Unknown,310,2012-11-10 23:48:00
5:48 PM,10.9,5.0,77,30.15,-9999.0,NW,13.8,-,N/A,,Unknown,310,2012-11-11 00:48:00
6:48 PM,9.0,3.9,80,30.15,-9999.0,WNW,9.2,-,N/A,,Unknown,290,2012-11-11 01:48:00
7:48 PM,8.1,3.0,80,30.15,-9999.0,WNW,9.2,-,N/A,,Unknown,290,2012-11-11 02:48:00
8:48 PM,6.1,1.9,83,30.17,-9999.0,NW,6.9,-,N/A,,Unknown,310,2012-11-11 03:48:00
9:48 PM,9.0,3.9,80,30.16,-9999.0,West,10.4,-,N/A,,Unknown,280,2012-11-11 04:48:00
10:48 PM,8.1,3.9,83,30.15,-9999.0,West,13.8,-,N/A,,Unknown,280,2012-11-11 05:48:00
11:48 PM,9.0,3.9,80,30.14,-9999.0,West,17.3,-,N/A,,Unknown,280,2012-11-11 06:48:00